This is the latest recevied weather packets stored in our database for station/object NO4D. If no packets are shown the sender has not sent any weather packets the latest 10 day(s).
| Time | Temp. | Humidity | Pressure | Rain* | Wind** | Luminosity | Snow |
|---|---|---|---|---|---|---|---|
| 1778017320 | 25.56° C | 42% | 1013.7 hPa | 0 mm | - | 394 W/m² | - |
| 1778017018 | 25.56° C | 42% | 1013.8 hPa | 0 mm | - | 134 W/m² | - |
| 1778016714 | 26.11° C | 40% | 1013.8 hPa | 0 mm | - | 209 W/m² | - |
| 1778016410 | 26.67° C | 41% | 1014 hPa | 0 mm | - | 124 W/m² | - |
| 1778016108 | 26.67° C | 41% | 1013.8 hPa | 0 mm | - | 468 W/m² | - |
| 1778015805 | 26.67° C | 41% | 1013.9 hPa | 0 mm | - | 507 W/m² | - |
| 1778015502 | 26.11° C | 42% | 1014.1 hPa | 0 mm | - | 377 W/m² | - |
| 1778015199 | 25.56° C | 44% | 1014.1 hPa | 0 mm | - | 370 W/m² | - |
| 1778014895 | 25.56° C | 42% | 1014.1 hPa | 0 mm | - | 314 W/m² | - |
| 1778014593 | 25.56° C | 42% | 1014.3 hPa | 0 mm | - | 277 W/m² | - |
| 1778014291 | 25.56° C | 42% | 1014.3 hPa | 0 mm | - | 215 W/m² | - |
| 1778013987 | 25.56° C | 41% | 1014 hPa | 0 mm | - | 505 W/m² | - |
| 1778013685 | 26.11° C | 40% | 1014.3 hPa | 0 mm | - | 529 W/m² | - |
| 1778013382 | 26.11° C | 41% | 1014.2 hPa | 0 mm | - | 440 W/m² | - |
| 1778013079 | 25.56° C | 41% | 1014.1 hPa | 0 mm | - | 467 W/m² | - |
| 1778012775 | 25.56° C | 40% | 1014.3 hPa | 0 mm | - | 335 W/m² | - |
| 1778012471 | 25.56° C | 39% | 1014.6 hPa | 0 mm | - | 477 W/m² | - |
| 1778012168 | 26.11° C | 39% | 1014.6 hPa | 0 mm | - | 501 W/m² | - |
| 1778011866 | 26.11° C | 40% | 1014.8 hPa | 0 mm | - | 565 W/m² | - |
| 1778011563 | 26.11° C | 37% | 1014.7 hPa | 0 mm | - | 512 W/m² | - |
| 1778011260 | 26.11° C | 40% | 1014.9 hPa | 0 mm | - | 560 W/m² | - |
| 1778010956 | 26.11° C | 40% | 1014.8 hPa | 0 mm | - | 538 W/m² | - |
| 1778010654 | 26.11° C | 39% | 1014.8 hPa | 0 mm | - | 598 W/m² | - |
| 1778010350 | 25.56° C | 40% | 1014.9 hPa | 0 mm | - | 464 W/m² | - |
| 1778010046 | 25.56° C | 40% | 1015.2 hPa | 0 mm | - | 540 W/m² | - |
* Rain latest hour (hover to see other rain measurements)
** Current wind speed in m/s (hover to see current wind gust speed)